Glencoe, MN

4:10 PM CDT on May 28, 2017 (GMT -0500)
Glencoe Municipal

Weather History for KGYL - December, 2012

Change the Weather History Date:

Monday, December 10, 2012

  Actual Average (KHCD) Record (KHCD)
Temperature  
Mean Temperature 2 °F -  
Max Temperature 14 °F 27 °F 51 °F (1990)
Min Temperature -10 °F 9 °F -18 °F (1977)
Degree Days  
Heating Degree Days 63    
Moisture  
Dew Point -3 °F    
Average Humidity 81    
Maximum Humidity 86    
Minimum Humidity 74    
Precipitation  
Precipitation 0.00 in - - ()
Sea Level Pressure  
Sea Level Pressure 29.92 in    
Wind  
Wind Speed 5 mph (WNW)    
Max Wind Speed 13 mph    
Max Gust Speed -    
Visibility 10 miles    
Events Snow    
Averages and records for this station are not official NWS values.
T = Trace of Precipitation, MM = Missing Value Source: NWS Daily Summary

Daily Weather History Graph

Daily Weather History Graph

Search for Another Location

Airport or City:

Trip Planner

Search our weather history database for the weather conditions in past years. The results will help you decide how hot, cold, wet, or windy it might be!

Date:

Astronomy

Dec. 10, 2012 Rise Set
Actual Time 7:43 AM CST 4:35 PM CST
Civil Twilight 7:09 AM CST 5:08 PM CST
Nautical Twilight 6:32 AM CST 5:45 PM CST
Astronomical Twilight 5:57 AM CST 6:21 PM CST
Moon 4:22 AM CST (12/10) 2:29 PM CST (12/10)
Length of Visible Light 9h 59m
Length of Day
8h 52m
Waning Crescent, 10% of the Moon is Illuminated
Dec 10
Waning Crescent
Dec 13
New
Dec 19
First Quarter
Dec 28
Full
Jan 4
Last Quarter

Hourly Weather History & Observations

Time (CST) Temp. Windchill Dew Point Humidity Pressure Visibility Wind Dir Wind Speed Gust Speed Precip Events Conditions
12:16 AM 14.5 °F 0.5 °F 10.6 °F 84% 29.95 in 10.0 mi NW 12.7 mph - N/A   Overcast
12:36 AM 13.5 °F 0.5 °F 9.3 °F 84% 29.95 in 10.0 mi NW 10.4 mph - N/A   Overcast
12:56 AM 12.6 °F -1.4 °F 8.2 °F 83% 29.95 in 10.0 mi NW 11.5 mph - N/A   Mostly Cloudy
1:15 AM 11.7 °F 1.1 °F 7.5 °F 83% 29.96 in 10.0 mi NW 6.9 mph - N/A   Scattered Clouds
1:36 AM 11.3 °F -2.2 °F 7.3 °F 84% 29.96 in 10.0 mi WNW 10.4 mph - N/A   Mostly Cloudy
1:56 AM 10.9 °F -2.6 °F 6.8 °F 83% 29.96 in 10.0 mi NW 10.4 mph - N/A   Mostly Cloudy
2:16 AM 10.8 °F -2.0 °F 6.8 °F 84% 29.97 in 10.0 mi NW 9.2 mph - N/A   Overcast
2:55 AM 10.4 °F -3.3 °F 5.9 °F 82% 29.96 in 10.0 mi NW 10.4 mph - N/A   Overcast
3:16 AM 10.6 °F -3.1 °F 6.1 °F 82% 29.96 in 4.0 mi NW 10.4 mph - N/A Snow Light Snow
3:36 AM 9.9 °F -1.1 °F 5.7 °F 83% 29.95 in 10.0 mi WNW 6.9 mph - N/A Snow Light Snow
3:56 AM 9.5 °F -1.5 °F 5.7 °F 85% 29.95 in 10.0 mi WNW 6.9 mph - N/A   Overcast
4:16 AM 10.4 °F -1.5 °F 6.3 °F 83% 29.95 in 10.0 mi WNW 8.1 mph - N/A   Overcast
4:36 AM 10.4 °F -0.4 °F 6.3 °F 83% 29.95 in 10.0 mi WNW 6.9 mph - N/A   Overcast
4:56 AM 10.4 °F -2.4 °F 6.1 °F 83% 29.94 in 10.0 mi WNW 9.2 mph - N/A   Overcast
5:16 AM 10.0 °F -3.7 °F 5.9 °F 83% 29.95 in 10.0 mi WNW 10.4 mph - N/A   Overcast
5:36 AM 10.0 °F -1.9 °F 5.9 °F 83% 29.95 in 10.0 mi NW 8.1 mph - N/A   Overcast
5:56 AM 10.0 °F -1.9 °F 5.9 °F 83% 29.95 in 10.0 mi WNW 8.1 mph - N/A Snow Light Snow
6:15 AM 9.7 °F -2.4 °F 5.7 °F 84% 29.95 in 7.0 mi WNW 8.1 mph - N/A Snow Light Snow
6:36 AM 8.4 °F -4.9 °F 4.5 °F 84% 29.95 in 5.0 mi WNW 9.2 mph - N/A Snow Light Snow
7:16 AM 5.9 °F -5.8 °F 1.8 °F 83% 29.95 in 10.0 mi West 6.9 mph - N/A Snow Light Snow
7:36 AM 4.8 °F - 0.9 °F 84% 29.95 in 10.0 mi Calm Calm - N/A   Overcast
7:56 AM 1.6 °F - -2.0 °F 85% 29.95 in 10.0 mi Calm Calm - N/A   Overcast
8:15 AM 0.5 °F - -3.3 °F 84% 29.95 in 10.0 mi Calm Calm - N/A   Scattered Clouds
8:36 AM -0.4 °F -10.4 °F -4.0 °F 85% 29.96 in 10.0 mi West 4.6 mph - N/A   Clear
8:56 AM -1.3 °F - -5.4 °F 83% 29.96 in 10.0 mi Calm Calm - N/A   Clear
9:16 AM -1.1 °F - -5.8 °F 81% 29.96 in 10.0 mi Calm Calm - N/A   Clear
9:36 AM -1.3 °F - -6.3 °F 79% 29.97 in 10.0 mi Calm Calm - N/A   Clear
9:56 AM -0.9 °F - -6.3 °F 78% 29.97 in 10.0 mi Calm Calm - N/A   Clear
10:15 AM -1.3 °F - -6.7 °F 78% 29.96 in 10.0 mi Calm Calm - N/A   Clear
10:36 AM -0.4 °F - -6.2 °F 77% 29.96 in 10.0 mi Calm Calm - N/A   Clear
10:56 AM -0.9 °F - -6.9 °F 76% 29.96 in 10.0 mi Calm Calm - N/A   Clear
11:16 AM -0.0 °F - -6.2 °F 75% 29.95 in 10.0 mi Calm Calm - N/A   Clear
11:36 AM -0.0 °F - -6.2 °F 75% 29.95 in 10.0 mi Calm Calm - N/A   Clear
11:56 AM -0.0 °F - -6.2 °F 75% 29.94 in 10.0 mi Calm Calm - N/A   Clear
12:16 PM 0.5 °F - -6.2 °F 74% 29.93 in 10.0 mi Calm Calm - N/A   Clear
12:36 PM 0.5 °F - -6.0 °F 74% 29.93 in 10.0 mi Calm Calm - N/A   Clear
12:56 PM 0.5 °F - -5.8 °F 75% 29.92 in 10.0 mi Calm Calm - N/A   Clear
1:16 PM 0.3 °F - -6.2 °F 74% 29.92 in 10.0 mi Calm Calm - N/A   Clear
1:36 PM 0.9 °F - -5.6 °F 74% 29.92 in 10.0 mi Calm Calm - N/A   Clear
1:55 PM 0.7 °F - -5.6 °F 75% 29.92 in 10.0 mi Calm Calm - N/A   Clear
2:16 PM 0.5 °F - -6.0 °F 74% 29.91 in 10.0 mi Calm Calm - N/A   Clear
2:36 PM -0.2 °F - -6.2 °F 76% 29.90 in 10.0 mi Calm Calm - N/A   Clear
2:56 PM -0.0 °F - -6.2 °F 75% 29.90 in 10.0 mi Calm Calm - N/A   Clear
3:16 PM -0.8 °F - -6.5 °F 77% 29.90 in 10.0 mi Calm Calm - N/A   Clear
3:36 PM -1.7 °F - -6.9 °F 78% 29.90 in 10.0 mi Calm Calm - N/A   Clear
3:56 PM -2.2 °F - -7.4 °F 78% 29.91 in 10.0 mi Calm Calm - N/A   Clear
4:16 PM -3.3 °F - -8.0 °F 80% 29.90 in 10.0 mi Calm Calm - N/A   Clear
4:36 PM -3.3 °F - -7.8 °F 81% 29.90 in 10.0 mi Calm Calm - N/A   Clear
4:56 PM -5.3 °F - -9.4 °F 82% 29.89 in 10.0 mi Calm Calm - N/A   Clear
5:16 PM -5.8 °F - -9.9 °F 82% 29.90 in 10.0 mi Calm Calm - N/A   Clear
5:36 PM -8.0 °F - -11.6 °F 84% 29.89 in 10.0 mi Calm Calm - N/A   Clear
5:56 PM -8.1 °F - -11.7 °F 84% 29.89 in 10.0 mi Calm Calm - N/A   Clear
6:15 PM -10.7 °F - -15.2 °F 80% 29.88 in 10.0 mi Calm Calm - N/A   Clear
6:36 PM -7.6 °F - -11.2 °F 84% 29.89 in 10.0 mi Calm Calm - N/A   Clear
6:56 PM -7.6 °F - -11.4 °F 84% 29.88 in 10.0 mi Calm Calm - N/A   Scattered Clouds
7:16 PM -9.8 °F - -13.7 °F 83% 29.87 in 10.0 mi Calm Calm - N/A   Clear
7:35 PM -9.0 °F - -13.5 °F 81% 29.88 in 10.0 mi Calm Calm - N/A   Scattered Clouds
7:56 PM -7.2 °F - -11.2 °F 83% 29.88 in 10.0 mi Calm Calm - N/A   Scattered Clouds
8:16 PM -6.7 °F - -10.3 °F 84% 29.88 in 10.0 mi Calm Calm - N/A   Mostly Cloudy
8:56 PM -4.5 °F - -8.3 °F 84% 29.86 in 10.0 mi Calm Calm - N/A   Scattered Clouds
9:16 PM -4.0 °F - -7.2 °F 86% 29.86 in 10.0 mi Calm Calm - N/A   Scattered Clouds
9:35 PM -4.2 °F - -8.0 °F 84% 29.84 in 10.0 mi Calm Calm - N/A   Mostly Cloudy
9:56 PM -2.2 °F - -5.8 °F 85% 29.83 in 10.0 mi Calm Calm - N/A   Mostly Cloudy
10:16 PM -1.1 °F - -4.5 °F 85% 29.83 in 10.0 mi Calm Calm - N/A   Overcast
10:36 PM -0.4 °F - -4.0 °F 85% 29.83 in 10.0 mi Calm Calm - N/A   Overcast
10:55 PM 0.7 °F - -2.6 °F 86% 29.82 in 10.0 mi Calm Calm - N/A   Overcast
11:16 PM 2.3 °F - -1.3 °F 85% 29.81 in 10.0 mi Calm Calm - N/A   Overcast
11:35 PM 3.2 °F - -0.4 °F 85% 29.81 in 10.0 mi Calm Calm - N/A   Overcast
11:56 PM 5.5 °F - 2.1 °F 86% 29.80 in 10.0 mi Calm Calm - N/A   Overcast